Weather History for KRSV - March, 2014

Change the Weather History Date:

Monday, March 10, 2014

  Actual Average (KLWV) Record (KLWV)
Temperature  
Mean Temperature 52 °F 43 °F  
Max Temperature 65 °F 53 °F 78 °F (2009)
Min Temperature 38 °F 33 °F 16 °F (2003)
Degree Days  
Heating Degree Days 14 22  
Month to date heating degree days 235  
Since 1 July heating degree days 3910  
Cooling Degree Days 0 0  
Month to date cooling degree days 0  
Year to date cooling degree days 0  
Growing Degree Days 2 (Base 50)    
Moisture  
Dew Point 41 °F    
Average Humidity 71    
Maximum Humidity 92    
Minimum Humidity 47    
Precipitation  
Precipitation 0.00 in 0.08 in 0.94 in (1973)
Month to date precipitation 0.80  
Year to date precipitation 5.19  
Sea Level Pressure  
Sea Level Pressure 29.87 in    
Wind  
Wind Speed 9 mph (SW)    
Max Wind Speed 17 mph    
Max Gust Speed 23 mph    
Visibility 8 miles    
Events      
T = Trace of Precipitation, MM = Missing Value Source: NWS Daily Summary

Daily Weather History Graph

Daily Weather History Graph

Search for Another Location

Airport or City:

Trip Planner

Search our weather history database for the weather conditions in past years. The results will help you decide how hot, cold, wet, or windy it might be!

Date:

Astronomy

Mar. 10, 2014 Rise Set
Actual Time 7:09 AM CDT 6:52 PM CDT
Civil Twilight 6:43 AM CDT 7:19 PM CDT
Nautical Twilight 6:12 AM CDT 7:50 PM CDT
Astronomical Twilight 5:41 AM CDT 8:21 PM CDT
Moon 1:38 PM CDT (3/10) 3:19 AM CDT (3/10)
Length of Visible Light 12h 36m
Length of Day
11h 42m
Waxing Gibbous, 70% of the Moon is Illuminated
Mar 10
Waxing Gibbous
Mar 16
Full
Mar 23
Last Quarter
Mar 30
New
Apr 7
First Quarter

Hourly Weather History & Observations

Time (CDT) Temp. Windchill Dew Point Humidity Pressure Visibility Wind Dir Wind Speed Gust Speed Precip Events Conditions
12:15 AM 39.7 °F 34.3 °F 33.3 °F 78% 30.03 in 10.0 mi SW 8.1 mph - N/A   Clear
12:35 AM 39.6 °F 33.0 °F 33.4 °F 79% 30.03 in 10.0 mi SW 10.4 mph - N/A   Clear
12:55 AM 39.4 °F 33.2 °F 33.8 °F 80% 30.02 in 10.0 mi SW 9.2 mph - N/A   Clear
1:15 AM 39.4 °F 32.7 °F 34.0 °F 81% 30.01 in 10.0 mi SW 10.4 mph 17.3 mph N/A   Clear
1:35 AM 39.0 °F 32.8 °F 34.2 °F 83% 30.00 in 7.0 mi SW 9.2 mph - N/A   Clear
1:55 AM 38.3 °F 31.4 °F 34.2 °F 85% 30.00 in 7.0 mi SW 10.4 mph - N/A   Clear
2:15 AM 39.0 °F 32.8 °F 34.7 °F 84% 30.00 in 7.0 mi SW 9.2 mph - N/A   Clear
2:35 AM 39.2 °F 32.0 °F 35.1 °F 85% 29.99 in 7.0 mi SW 11.5 mph - N/A   Clear
2:55 AM 39.2 °F 33.0 °F 35.1 °F 85% 29.98 in 7.0 mi SW 9.2 mph - N/A   Clear
3:15 AM 39.2 °F 33.0 °F 35.4 °F 86% 29.98 in 7.0 mi SW 9.2 mph - N/A   Clear
3:35 AM 39.0 °F 34.0 °F 35.4 °F 87% 29.97 in 7.0 mi SW 6.9 mph - N/A   Clear
3:55 AM 38.3 °F 32.5 °F 35.4 °F 89% 29.96 in 5.0 mi SW 8.1 mph - N/A   Clear
4:15 AM 38.8 °F 32.1 °F 36.0 °F 89% 29.95 in 5.0 mi SW 10.4 mph - N/A   Clear
4:35 AM 39.4 °F 32.7 °F 36.5 °F 89% 29.95 in 5.0 mi SW 10.4 mph 16.1 mph N/A   Clear
4:55 AM 39.2 °F 33.6 °F 36.7 °F 91% 29.94 in 5.0 mi SW 8.1 mph - N/A   Clear
5:15 AM 39.2 °F 34.2 °F 36.9 °F 91% 29.93 in 5.0 mi SW 6.9 mph - N/A   Clear
5:35 AM 39.4 °F 33.8 °F 36.9 °F 91% 29.93 in 5.0 mi SW 8.1 mph - N/A   Clear
5:55 AM 40.1 °F 35.3 °F 37.4 °F 90% 29.92 in 5.0 mi SW 6.9 mph - N/A   Clear
6:15 AM 39.7 °F 34.9 °F 37.2 °F 91% 29.93 in 5.0 mi SW 6.9 mph - N/A   Clear
6:35 AM 40.1 °F 35.3 °F 37.6 °F 91% 29.93 in 5.0 mi SW 6.9 mph - N/A   Clear
6:55 AM 40.1 °F 36.9 °F 37.8 °F 91% 29.92 in 5.0 mi SW 4.6 mph - N/A   Clear
7:15 AM 39.7 °F 35.6 °F 37.6 °F 92% 29.92 in 4.0 mi SW 5.8 mph - N/A   Clear
7:35 AM 40.5 °F 35.1 °F 38.3 °F 92% 29.92 in 4.0 mi SW 8.1 mph - N/A   Clear
7:55 AM 41.0 °F 35.8 °F 38.5 °F 91% 29.91 in 4.0 mi SW 8.1 mph - N/A   Clear
8:15 AM 42.1 °F 37.7 °F 39.2 °F 90% 29.91 in 4.0 mi SSW 6.9 mph - N/A   Clear
8:35 AM 43.5 °F 39.4 °F 40.1 °F 88% 29.93 in 4.0 mi SSW 6.9 mph - N/A   Clear
8:55 AM 44.4 °F 39.5 °F 40.5 °F 86% 29.92 in 4.0 mi SW 9.2 mph - N/A   Clear
9:15 AM 45.0 °F 41.2 °F 41.0 °F 86% 29.93 in 4.0 mi SW 6.9 mph - N/A   Clear
9:35 AM 46.9 °F - 41.7 °F 82% 29.92 in 5.0 mi SW 10.4 mph - N/A   Haze
9:55 AM 49.3 °F - 42.6 °F 78% 29.92 in 5.0 mi SW 12.7 mph - N/A   Haze
10:15 AM 51.1 °F - 42.6 °F 73% 29.91 in 7.0 mi SW 13.8 mph 18.4 mph N/A   Clear
10:35 AM 52.7 °F - 41.9 °F 67% 29.91 in 7.0 mi WSW 17.3 mph 21.9 mph N/A   Clear
10:55 AM 53.6 °F - 42.1 °F 65% 29.91 in 7.0 mi WSW 15.0 mph 23.0 mph N/A   Clear
11:15 AM 54.1 °F - 42.4 °F 65% 29.90 in 7.0 mi SW 17.3 mph 23.0 mph N/A   Clear
11:35 AM 55.4 °F - 43.0 °F 63% 29.90 in 7.0 mi WSW 13.8 mph 18.4 mph N/A   Clear
11:55 AM 57.6 °F - 43.2 °F 59% 29.89 in 10.0 mi WSW 16.1 mph - N/A   Clear
12:15 PM 58.8 °F - 42.8 °F 55% 29.89 in 10.0 mi SW 13.8 mph - N/A   Clear
12:35 PM 60.8 °F - 43.2 °F 52% 29.88 in 10.0 mi WSW 13.8 mph - N/A   Clear
12:55 PM 62.1 °F - 43.3 °F 50% 29.87 in 10.0 mi SW 11.5 mph 16.1 mph N/A   Clear
1:15 PM 63.5 °F - 44.1 °F 49% 29.86 in 10.0 mi WSW 9.2 mph - N/A   Clear
1:35 PM 62.2 °F - 43.9 °F 51% 29.85 in 10.0 mi SW 10.4 mph - N/A   Clear
1:55 PM 63.0 °F - 44.2 °F 50% 29.84 in 10.0 mi SW 10.4 mph - N/A   Clear
2:15 PM 62.8 °F - 44.2 °F 51% 29.82 in 10.0 mi SW 12.7 mph - N/A   Clear
2:35 PM 63.1 °F - 44.1 °F 50% 29.81 in 10.0 mi SSW 11.5 mph - N/A   Clear
2:55 PM 63.7 °F - 44.6 °F 50% 29.80 in 10.0 mi SW 13.8 mph - N/A   Clear
3:15 PM 65.3 °F - 44.4 °F 47% 29.79 in 10.0 mi SSW 13.8 mph - N/A   Clear
3:35 PM 64.4 °F - 45.0 °F 49% 29.78 in 10.0 mi SSW 11.5 mph - N/A   Clear
3:55 PM 64.4 °F - 44.8 °F 49% 29.78 in 10.0 mi SW 11.5 mph - N/A   Clear
4:15 PM 64.9 °F - 45.3 °F 49% 29.77 in 10.0 mi SSW 13.8 mph - N/A   Clear
4:35 PM 64.2 °F - 45.9 °F 51% 29.77 in 10.0 mi SSW 10.4 mph - N/A   Clear
4:55 PM 63.7 °F - 46.2 °F 53% 29.76 in 10.0 mi SSW 8.1 mph - N/A   Clear
5:15 PM 63.5 °F - 47.1 °F 55% 29.75 in 10.0 mi SSW 6.9 mph - N/A   Clear
5:35 PM 63.1 °F - 46.6 °F 55% 29.76 in 10.0 mi WSW 6.9 mph - N/A   Clear
5:55 PM 63.3 °F - 46.6 °F 54% 29.76 in 10.0 mi SW 5.8 mph - N/A   Clear
6:15 PM 61.5 °F - 46.8 °F 58% 29.76 in 10.0 mi WSW 4.6 mph - N/A   Clear
6:35 PM 61.2 °F - 45.7 °F 57% 29.76 in 10.0 mi Calm Calm - N/A   Clear
6:55 PM 61.0 °F - 45.5 °F 57% 29.76 in 10.0 mi SSW 5.8 mph - N/A   Clear
7:15 PM 60.8 °F - 44.8 °F 56% 29.76 in 10.0 mi SSW 9.2 mph - N/A   Clear
7:35 PM 60.1 °F - 44.1 °F 55% 29.76 in 10.0 mi SSW 10.4 mph - N/A   Clear
7:55 PM 57.6 °F - 43.7 °F 60% 29.76 in 10.0 mi SSW 9.2 mph - N/A   Clear
8:15 PM 55.8 °F - 42.8 °F 62% 29.76 in 10.0 mi SSW 6.9 mph - N/A   Clear
8:35 PM 55.0 °F - 42.6 °F 63% 29.77 in 10.0 mi SSW 6.9 mph - N/A   Clear
8:55 PM 53.6 °F - 42.3 °F 65% 29.77 in 10.0 mi SSW 6.9 mph - N/A   Clear
9:15 PM 54.3 °F - 43.0 °F 66% 29.77 in 10.0 mi SSW 6.9 mph - N/A   Clear
9:35 PM 53.8 °F - 43.0 °F 67% 29.78 in 10.0 mi SSW 5.8 mph - N/A   Clear
9:55 PM 52.7 °F - 42.8 °F 69% 29.77 in 10.0 mi SSW 8.1 mph - N/A   Clear
10:15 PM 52.9 °F - 43.3 °F 70% 29.78 in 10.0 mi SSW 6.9 mph - N/A   Clear
10:35 PM 52.9 °F - 43.9 °F 71% 29.77 in 10.0 mi SSW 5.8 mph - N/A   Clear
10:55 PM 53.1 °F - 44.8 °F 73% 29.77 in 10.0 mi SSW 6.9 mph - N/A   Clear
11:15 PM 52.3 °F - 45.1 °F 76% 29.77 in 10.0 mi SSW 5.8 mph - N/A   Clear
11:35 PM 49.6 °F - 44.1 °F 81% 29.76 in 10.0 mi SSW 5.8 mph - N/A   Clear
11:55 PM 50.2 °F - 44.8 °F 82% 29.76 in 10.0 mi SSW 5.8 mph - N/A   Clear